Tracking 21076 objects as of 9-Aug-2020
HD Live streaming from Space Station
objects crossing your sky now
Track the most recent launched group of Starlink satellites

COSMOS 1766

Track COSMOS 1766 now!
10-day predictions
COSMOS 1766 is classified as:


NORAD ID: 16881
Int'l Code: 1986-055A
Perigee: 527.4 km
Apogee: 552.8 km
Inclination: 82.5 °
Period: 95.3 minutes
Semi major axis: 6911 km
RCS: 9.3716 m2 (large)
Launch date: July 28, 1986
Source: Commonwealth of Independent States (former USSR) (CIS)
Launch site: PLESETSK MISSILE AND SPACE COMPLEX (PKMTR)
aabbcc
Your satellite tracking list
Your tracking list is empty




NASA's NSSDC Master Catalog

Two Line Element Set (TLE):
1 16881U 86055A   20222.08001818  .00000836  00000-0  47995-4 0  9997
2 16881  82.5072 338.8889 0018375 105.3367 254.9896 15.11055174854882
Source of the keplerian elements: AFSPC